[[{"header":{"parameterUnit":"m.s-1","parameterCategory":1,"la1":30.2991,"la2":30.254,"lo1":-89.0895,"lo2":-89.0444,"dy":0.0017,"dx":0.0017,"nx":28,"ny":28,"refTime":"2025-01-15T03:00:00:Z","depth":0,"parameterNumber":2,"parameterNumberName":"U-component_of_WINDS"},"data":[0,0,0,0,0,0,0,0,0,0,0,0,0,0,0,0,0,0,0,0,0,0,0,0,0,0,0,0,0,0,0,0,0,0,0,0,0,0,0,0,0,0,0,0,0,0,0,0,0,0,0,0,0,0,0,0,0,0,-4.6961,-4.6962,0,-4.7,-4.7001,-4.7001,-4.6846,-4.6842,-4.6837,-4.6833,-4.6877,-4.6882,-4.6888,0,0,0,0,0,0,0,0,0,0,0,0,0,-4.6758,-4.6763,-4.6961,-4.6962,-4.6962,-4.7,-4.7001,-4.7001,-4.6847,-4.6842,-4.6836,-4.6831,-4.6875,-4.6882,-4.6888,0,0,0,0,0,0,0,0,0,0,0,0,0,-4.6827,-4.6764,-4.6961,-4.689,-4.6884,-4.7,-4.7001,-4.7001,-4.6848,-4.6841,-4.6835,-4.6828,-4.6873,-4.6881,-4.6889,-4.7078,0,0,-4.6914,-4.6918,0,0,0,0,0,0,0,0,-4.6823,-4.6835,-4.69,-4.6895,-4.6888,-4.6911,-4.6945,-4.7027,-4.685,-4.6862,-4.6833,-4.6825,-4.6894,-4.69,-4.6923,-4.708,-4.7082,-4.6915,-4.692,-4.6923,-4.6926,0,0,0,0,0,0,0,-4.6819,-4.6832,-4.6977,-4.6901,-4.6894,-4.6857,-4.686,-4.696,-4.6917,-4.686,-4.6849,-4.6856,-4.689,-4.6915,-4.6923,-4.7082,-4.6915,-4.6922,-4.6927,-4.693,-4.7397,-4.7404,0,0,0,0,0,0,-4.6823,-4.6829,-4.6976,-4.6978,-4.6838,-4.6867,-4.6869,-4.6911,-4.6915,-4.6909,-4.6862,-4.6848,-4.6905,-4.6914,-4.6924,-4.7145,-4.6923,-4.6931,-4.6936,-4.7389,-4.7398,-4.7407,0,0,0,0,0,0,-4.6819,-4.6837,-4.6974,-4.6901,-4.6915,-4.6877,-4.6926,-4.6915,-4.6941,-4.6916,-4.6908,-4.6895,-4.69,-4.6912,-4.704,-4.7145,-4.6935,-4.6942,-4.7381,-4.7392,-4.7402,-4.759,0,0,0,0,0,0,-4.6814,-4.6837,-4.6907,-4.6903,-4.692,-4.7089,-4.6932,-4.6921,-4.6955,-4.6938,-4.6945,-4.694,-4.6895,-4.7029,-4.7049,-4.7152,-4.6949,-4.7371,-4.7386,-4.7399,-4.7575,-4.7606,-4.7634,0,0,0,0,0,-4.6807,-4.6959,-4.6911,-4.693,-4.7006,-4.7096,-4.7105,-4.7049,-4.6964,-4.7035,-4.7019,-4.694,-4.713,-4.7044,-4.7064,-4.7172,-4.7364,-4.7382,-4.7398,-4.7561,-4.76,-4.7633,0,0,0,0,0,0,-4.6977,-4.6957,-4.6904,-4.7059,-4.708,-4.7069,-4.7157,-4.7092,-4.7139,-4.7122,-4.7052,-4.7055,-4.7196,-4.7196,-4.71,-4.7355,-4.7233,-4.7254,-4.735,-4.7386,-4.7416,-4.7413,-4.6955,0,0,0,0,0,-4.7032,-4.7105,-4.7084,-4.7223,-4.7236,-4.7195,-4.7232,-4.7187,-4.7207,-4.7215,-4.7209,-4.7232,-4.7297,-4.7342,-4.74,-4.7573,-4.7574,-4.7658,-4.7688,-4.7712,-4.7732,-4.7825,-4.7863,-4.7462,-4.7462,-4.7461,0,0,-4.7148,-4.7146,-4.7196,-4.7257,-4.7268,-4.7347,-4.7204,-4.7293,-4.7351,-4.7229,-4.735,-4.7346,-4.7368,-4.752,-4.7587,-4.7525,-4.7843,-4.7733,-4.7753,-4.776,-4.7847,-4.7885,-4.7919,-4.7473,-4.7471,-4.7469,0,0,-4.7398,-4.7403,-4.752,-4.7534,-4.7552,-4.7524,-4.7553,-4.7552,-4.7544,-4.7664,-4.7575,-4.7644,-4.7757,-4.7776,-4.7801,-4.806,-4.799,-4.8081,-4.8236,-4.8328,-4.836,-4.8387,-4.8481,-4.8516,-4.8101,-4.8101,-4.8102,0,-4.754,-4.7653,-4.7589,-4.7684,-4.7714,-4.7606,-4.7725,-4.7742,-4.778,-4.7804,-4.7733,-4.7874,-4.7881,-4.8036,-4.81,-4.8123,-4.8154,-4.808,-4.836,-4.8387,-4.8412,-4.8501,-4.8536,-4.8112,-4.8111,-4.811,-4.8109,0,-4.7827,-4.7907,-4.7999,-4.8037,-4.8077,-4.8184,-4.8138,-4.8187,-4.8139,-4.8119,-4.8243,-4.8247,-4.8305,-4.8339,-4.8293,-4.8489,-4.845,-4.8372,-4.8247,-4.8463,-4.8545,-4.8578,-4.8128,-4.8124,-4.8121,-4.8118,0,0,-4.8185,-4.8186,-4.8221,-4.8238,-4.825,-4.8312,-4.8415,-4.847,-4.8514,-4.8544,-4.8629,-4.8728,-4.8655,-4.8683,-4.8639,-4.872,-4.8927,-4.8631,-4.863,-4.8687,-4.9145,-4.9205,-4.9245,-4.8879,-4.8886,-4.8891,-4.9143,0,-4.8432,-4.8606,-4.8552,-4.8728,-4.8802,-4.8702,-4.8791,-4.881,-4.8794,-4.8856,-4.8839,-4.891,-4.8808,-4.8825,-4.89,-4.8886,-4.9018,-4.8866,-4.896,-4.8964,-4.8959,-4.9288,-4.9351,-4.9589,-4.9175,-4.918,-4.9184,0,-4.8743,-4.8784,-4.8968,-4.8969,-4.8998,-4.9079,-4.9127,-4.9186,-4.9206,-4.9189,-4.9222,-4.9161,-4.9263,-4.9138,-4.9279,-4.9177,-4.9213,-4.9212,-4.922,-4.9227,-4.9088,-4.9306,-4.9664,-4.97,-4.9234,-4.923,-4.9226,0,-4.8988,-4.9089,-4.9212,-4.9229,-4.9233,-4.9293,-4.9298,-4.9311,-4.9348,-4.939,-4.9413,-4.9467,-4.9497,-4.9541,-4.9497,-4.941,-4.9646,-4.9517,-4.9636,-4.9638,-4.9691,-4.9689,-5.0062,-4.9713,-4.9712,-4.9712,-4.9711,0,-4.927,-4.9387,-4.9323,-4.9399,-4.9527,-4.9464,-4.9593,-4.9587,-4.9599,-4.9673,-4.959,-4.9662,-4.9599,-4.9666,-4.9632,-4.9755,-4.9769,-4.9759,-4.9749,-4.9768,-4.9769,-4.979,-4.9773,-4.9721,-4.9719,-4.9717,-4.9715,0,-4.9565,-4.9527,-4.9655,-4.9648,-4.9649,-4.9745,-4.9739,-4.981,-4.9788,-4.9884,-4.9903,-4.9869,-4.9944,-4.9904,-4.9981,-4.9958,-5.0118,-5.0085,-5.0111,-5.0103,-5.0225,-5.0215,-5.0626,-5.0677,-5.0295,-5.0298,-5.0301,0,-4.9748,-4.9835,-4.9838,-4.9881,-4.9891,-4.9962,-4.9999,-4.9941,-4.9984,-5.0014,-5.0082,-5.0149,-5.0199,-5.0323,-5.0307,-5.0365,-5.0334,-5.0474,-5.0342,-5.0358,-5.0338,-5.0333,-5.0342,-5.0501,-5.0505,-5.0509,-5.0512,0,-5.0077,-5.0054,-5.011,-5.0161,-5.0208,-5.0246,-5.0276,-5.0317,-5.0259,-5.0312,-5.0386,-5.0426,-5.0504,-5.0572,-5.0623,-5.0629,-5.0563,-5.0553,-5.0584,-5.0604,-5.0617,-5.0613,-5.0185,-5.0544,-5.0541,-5.0539,-5.0537,-5.0536,-5.0322,-5.0396,-5.0409,-5.0476,-5.0492,-5.0523,-5.059,-5.0576,-5.0637,-5.0695,-5.0658,-5.0746,-5.0765,-5.0826,-5.0841,-5.091,-5.0854,-5.0899,-5.0911,-5.0923,-5.094,-5.0605,-5.0919,-5.0918,-5.0917,-5.0916,-5.0916,0,-5.0648,-5.0651,-5.0713,-5.0758,-5.0811,-5.0742,-5.0773,-5.0822,-5.09,-5.0922,-5.0974,-5.106,-5.1126,-5.1115,-5.1175,-5.1233,-5.1204,-5.1251,-5.1247,-5.125,-5.0986,-5.0954,-5.1274,-5.1274,-5.1274,-5.1273,-5.1273,-5.1273,-5.0823,-5.0944,-5.0923,-5.1052,-5.1055,-5.114,-5.1164,-5.1193,-5.121,-5.131,-5.1364,-5.1356,-5.1366,-5.1426,-5.1484,-5.1479,-5.1506,-5.1565,-5.155,-5.1303,-5.1268,-5.1234,-5.1204,-5.1571,-5.1571,-5.1807,-5.1809,-5.1811]},{"header":{"parameterUnit":"m.s-1","parameterCategory":1,"la1":30.2991,"la2":30.254,"lo1":-89.0895,"lo2":-89.0444,"dy":0.0017,"dx":0.0017,"nx":28,"ny":28,"refTime":"2025-01-15T03:00:00:Z","depth":0,"parameterNumber":3,"parameterNumberName":"V-component_of_WINDS"},"data":[0,0,0,0,0,0,0,0,0,0,0,0,0,0,0,0,0,0,0,0,0,0,0,0,0,0,0,0,0,0,0,0,0,0,0,0,0,0,0,0,0,0,0,0,0,0,0,0,0,0,0,0,0,0,0,0,0,0,-1.2021,-1.202,0,-1.1961,-1.196,-1.196,-1.191,-1.1909,-1.1909,-1.1908,-1.1846,-1.1845,-1.1844,0,0,0,0,0,0,0,0,0,0,0,0,0,-1.209,-1.2089,-1.2021,-1.202,-1.2019,-1.1961,-1.196,-1.1959,-1.191,-1.1909,-1.1908,-1.1908,-1.1847,-1.1845,-1.1844,0,0,0,0,0,0,0,0,0,0,0,0,0,-1.2048,-1.2088,-1.2021,-1.1987,-1.1984,-1.1961,-1.196,-1.1959,-1.191,-1.1909,-1.1908,-1.1907,-1.1847,-1.1845,-1.1844,-1.1849,0,0,-1.1838,-1.1838,0,0,0,0,0,0,0,0,-1.205,-1.2045,-1.1993,-1.199,-1.1986,-1.1942,-1.1962,-1.1922,-1.191,-1.1938,-1.1908,-1.1907,-1.1879,-1.1874,-1.1865,-1.1846,-1.1844,-1.1838,-1.1837,-1.1837,-1.1836,0,0,0,0,0,0,0,-1.2053,-1.2048,-1.1997,-1.1992,-1.1988,-1.1975,-1.1968,-1.1954,-1.1914,-1.1935,-1.1932,-1.1925,-1.1876,-1.1867,-1.1863,-1.1843,-1.1838,-1.1837,-1.1836,-1.1835,-1.1825,-1.1826,0,0,0,0,0,0,-1.2061,-1.205,-1.1999,-1.1995,-1.2017,-1.1974,-1.1966,-1.1957,-1.1914,-1.1906,-1.1926,-1.1923,-1.187,-1.1865,-1.1861,-1.1864,-1.1837,-1.1835,-1.1834,-1.1824,-1.1825,-1.1826,0,0,0,0,0,0,-1.2063,-1.2057,-1.2001,-1.2022,-1.2014,-1.1974,-1.1963,-1.1956,-1.1946,-1.1906,-1.1899,-1.1924,-1.1869,-1.1863,-1.1852,-1.1862,-1.1834,-1.1833,-1.1824,-1.1825,-1.1826,-1.1872,0,0,0,0,0,0,-1.2065,-1.2058,-1.2061,-1.2022,-1.2013,-1.1995,-1.1964,-1.1955,-1.1943,-1.1939,-1.1902,-1.1895,-1.1868,-1.1855,-1.1851,-1.1859,-1.1831,-1.1823,-1.1824,-1.1825,-1.187,-1.1875,-1.1879,0,0,0,0,0,-1.2068,-1.2076,-1.2061,-1.2055,-1.2015,-1.1995,-1.199,-1.1959,-1.1944,-1.1946,-1.192,-1.1896,-1.1861,-1.1855,-1.1849,-1.1857,-1.1822,-1.1824,-1.1825,-1.1868,-1.1874,-1.1879,0,0,0,0,0,0,-1.2116,-1.207,-1.2053,-1.2049,-1.2027,-1.1987,-1.1988,-1.1966,-1.1947,-1.1944,-1.1905,-1.1898,-1.1891,-1.1872,-1.1866,-1.1859,-1.1838,-1.1839,-1.1872,-1.1878,-1.1882,-1.1888,-1.183,0,0,0,0,0,-1.2127,-1.2115,-1.2075,-1.2075,-1.2065,-1.2029,-1.2019,-1.1997,-1.1972,-1.1962,-1.1935,-1.1912,-1.1895,-1.1885,-1.1868,-1.1866,-1.1857,-1.1868,-1.1873,-1.1877,-1.1879,-1.1876,-1.1881,-1.1832,-1.1832,-1.1832,0,0,-1.2148,-1.2121,-1.2116,-1.2085,-1.2064,-1.2053,-1.2021,-1.201,-1.2001,-1.196,-1.1949,-1.1928,-1.1899,-1.1893,-1.1889,-1.1877,-1.189,-1.1879,-1.1883,-1.1882,-1.1878,-1.1883,-1.1887,-1.1833,-1.1833,-1.1833,0,0,-1.2181,-1.2159,-1.2157,-1.2137,-1.2107,-1.2083,-1.2082,-1.2046,-1.2031,-1.2018,-1.1987,-1.1975,-1.1948,-1.1928,-1.1915,-1.1938,-1.1916,-1.1934,-1.1959,-1.1957,-1.1961,-1.1964,-1.1973,-1.1976,-1.1935,-1.1935,-1.1935,0,-1.2211,-1.2193,-1.2159,-1.215,-1.2136,-1.2098,-1.2095,-1.2078,-1.2043,-1.2035,-1.2022,-1.1986,-1.1964,-1.1953,-1.1958,-1.1948,-1.1946,-1.1938,-1.1963,-1.1966,-1.1968,-1.1976,-1.198,-1.1937,-1.1937,-1.1937,-1.1937,0,-1.2231,-1.2219,-1.2221,-1.2189,-1.2175,-1.217,-1.2134,-1.2124,-1.2103,-1.208,-1.2067,-1.2039,-1.2015,-1.201,-1.1989,-1.1995,-1.1989,-1.197,-1.1948,-1.1976,-1.1983,-1.1986,-1.1941,-1.194,-1.1939,-1.1939,0,0,-1.2295,-1.2243,-1.2244,-1.2229,-1.2192,-1.2182,-1.2174,-1.215,-1.2143,-1.212,-1.2112,-1.2089,-1.2071,-1.2056,-1.2031,-1.203,-1.205,-1.201,-1.2009,-1.2019,-1.2056,-1.2071,-1.2075,-1.2034,-1.2035,-1.2035,-1.2059,0,-1.2322,-1.2306,-1.2275,-1.2269,-1.2257,-1.2219,-1.2212,-1.2189,-1.2166,-1.2152,-1.2127,-1.2111,-1.2088,-1.2079,-1.2075,-1.2049,-1.2057,-1.2046,-1.2027,-1.2027,-1.2037,-1.2079,-1.2095,-1.2119,-1.2061,-1.2061,-1.2062,0,-1.2353,-1.2332,-1.2325,-1.2288,-1.2282,-1.2277,-1.2252,-1.2239,-1.2211,-1.2195,-1.2177,-1.2151,-1.2139,-1.2118,-1.2102,-1.2096,-1.2085,-1.2071,-1.2071,-1.2069,-1.2047,-1.2079,-1.2125,-1.2129,-1.2065,-1.2065,-1.2065,0,-1.24,-1.2371,-1.2363,-1.2351,-1.2307,-1.2304,-1.2286,-1.2257,-1.2245,-1.2223,-1.2214,-1.2192,-1.2179,-1.2162,-1.213,-1.2117,-1.2117,-1.2093,-1.2103,-1.2104,-1.2106,-1.2107,-1.2153,-1.2098,-1.2098,-1.2098,-1.2098,0,-1.2435,-1.2432,-1.2383,-1.2379,-1.2374,-1.2337,-1.2333,-1.2311,-1.2286,-1.2276,-1.2241,-1.2232,-1.2189,-1.2175,-1.2149,-1.214,-1.2134,-1.2121,-1.2114,-1.2125,-1.2127,-1.2118,-1.2116,-1.2099,-1.2098,-1.2098,-1.2098,0,-1.2488,-1.2456,-1.2444,-1.2404,-1.2394,-1.2392,-1.2357,-1.2351,-1.2326,-1.2313,-1.2308,-1.2269,-1.225,-1.2215,-1.2187,-1.217,-1.2166,-1.2154,-1.2176,-1.2172,-1.2184,-1.2184,-1.2227,-1.2231,-1.2173,-1.2174,-1.2175,0,-1.2514,-1.2511,-1.247,-1.2461,-1.2444,-1.2429,-1.2416,-1.2379,-1.2367,-1.2334,-1.2331,-1.231,-1.2291,-1.2263,-1.2232,-1.2209,-1.2197,-1.2214,-1.2194,-1.2204,-1.2198,-1.2199,-1.2199,-1.2219,-1.222,-1.222,-1.2221,0,-1.2562,-1.2545,-1.2528,-1.2505,-1.2491,-1.2471,-1.2449,-1.2443,-1.2401,-1.2389,-1.2369,-1.2354,-1.2325,-1.2304,-1.2277,-1.2258,-1.2232,-1.2227,-1.2228,-1.224,-1.2253,-1.2246,-1.2189,-1.2227,-1.2226,-1.2226,-1.2225,-1.2225,-1.2602,-1.2597,-1.2568,-1.255,-1.2529,-1.2509,-1.2501,-1.2475,-1.2458,-1.2432,-1.241,-1.2392,-1.2363,-1.2324,-1.2306,-1.2291,-1.2279,-1.2281,-1.2282,-1.2283,-1.2287,-1.2254,-1.2286,-1.2286,-1.2286,-1.2285,-1.2285,0,-1.2649,-1.2628,-1.2611,-1.2582,-1.2567,-1.2544,-1.2518,-1.2508,-1.2493,-1.2468,-1.2449,-1.2427,-1.2406,-1.2372,-1.2349,-1.2343,-1.2331,-1.2338,-1.2339,-1.2335,-1.2299,-1.2301,-1.2349,-1.2349,-1.2349,-1.2349,-1.2349,-1.2349,-1.2671,-1.2663,-1.2643,-1.2623,-1.2601,-1.2584,-1.2571,-1.2552,-1.2532,-1.2508,-1.2491,-1.2469,-1.244,-1.2414,-1.2394,-1.2384,-1.2378,-1.2389,-1.2376,-1.2343,-1.2338,-1.2332,-1.2333,-1.2388,-1.2388,-1.2413,-1.2413,-1.2414]}]]